RH
24 24 25 24 24 24 23 23 22 21 19 17 15 14 13 12 12 12 11 11 11 11 11 11 11 11 11 10 10 10 10 10 9 9 9 9 10 10 10 11 11 11 12 12 12 12 12 12 11 10 10 9
26 26 26 26 25 24 23 20 18 15 14 13 12 11 11 11 11 11 11 11 11 11 10 10 10 10 9 9 9 9 9 8 8 8 8 8 9 9 9 9 10 10 10 11 12 12 13 13 12 12 11 10
28 28 27 26 24 21 18 15 13 12 12 13 13 14 14 14 15 15 16 15 15 14 14 14 14 14 14 14 13 12 11 10 9 9 8 8 9 9 9 9 10 10 10 11 11 12 13 13 13 13 12 11
29 28 26 23 19 15 13 14 14 16 17 18 19 20 20 20 20 21 20 20 19 18 16 15 14 14 15 17 18 19 18 17 15 13 12 11 10 10 10 11 11 11 11 11 11 12 13 14 14 14 13 13
29 27 23 17 14 14 16 19 20 21 22 23 23 23 23 22 22 22 22 22 22 22 20 19 16 14 12 11 13 15 18 21 22 22 20 18 16 15 14 13 13 13 13 13 12 12 13 14 14 14 14 14
29 23 17 14 15 19 22 24 24 24 24 25 25 24 24 24 24 24 24 23 23 23 23 23 22 20 17 14 11 8 9 11 15 18 21 23 23 22 21 19 18 17 16 16 15 15 15 15 15 15 14 14
26 18 14 16 20 24 25 26 26 27 27 27 27 27 27 27 27 27 26 26 25 24 23 23 23 24 23 22 19 14 10 7 7 8 10 14 17 20 21 22 22 21 21 19 19 18 17 17 16 15 15 15
21 15 17 21 24 27 27 27 28 28 28 28 28 28 28 28 28 28 27 26 25 24 23 23 23 23 24 25 24 22 18 13 10 6 5 4 5 8 10 13 16 17 19 19 19 19 18 17 17 16 15 15
16 16 21 24 27 28 28 29 30 28 27 28 28 28 29 30 30 28 27 26 25 25 24 24 24 24 24 25 25 25 23 19 14 10 8 5 4 3 3 4 5 7 9 11 12 13 14 14 14 14 13 13
16 20 24 27 29 29 30 31 29 27 26 28 29 31 32 31 31 30 29 28 28 28 27 27 27 26 26 26 25 24 23 20 16 13 9 8 6 5 4 3 2 3 3 3 4 5 6 7 8 9 9 9
20 25 28 29 30 31 31 31 29 26 25 28 30 32 33 32 32 32 31 31 30 29 28 27 27 26 25 24 22 21 19 16 14 11 9 8 7 6 5 4 3 3 3 2 2 2 2 3 3 4 5 5
26 29 31 32 32 32 31 30 28 25 25 28 31 32 32 32 32 32 32 31 31 30 28 26 25 22 18 15 14 13 13 11 9 8 7 6 6 6 5 4 4 3 3 3 2 2 2 2 2 2 3 3
30 32 33 33 33 32 31 28 26 25 25 28 31 32 32 32 31 31 31 31 31 30 28 26 23 19 12 8 6 6 6 6 6 5 5 5 5 5 5 4 4 4 4 3 3 3 3 3 2 2 2 2
33 34 34 34 33 31 29 27 25 25 27 29 31 31 32 31 31 30 31 31 31 30 28 25 21 15 8 5 4 4 4 4 4 4 4 4 4 4 4 4 4 4 4 4 4 3 3 3 3 3 2 2
34 34 34 33 32 30 28 27 27 29 30 31 31 31 32 32 32 32 32 32 30 29 26 22 16 9 5 4 4 4 4 4 4 4 4 4 4 4 4 4 4 4 4 5 5 5 4 3 3 3 3 3
34 34 34 33 31 30 31 31 32 33 33 33 33 33 34 34 34 33 32 31 29 25 20 15 9 5 4 3 4 3 3 4 3 3 3 3 3 3 4 3 4 4 4 4 4 5 5 4 4 4 4 4
35 34 34 33 33 34 36 37 36 36 35 35 36 36 36 35 33 32 31 27 22 17 11 8 5 3 3 3 3 3 3 3 3 3 3 3 3 3 3 3 3 3 3 3 3 4 4 4 4 4 4 4
35 35 36 36 38 39 39 39 38 38 37 37 37 36 35 32 30 28 26 20 13 8 5 4 3 3 3 3 2 2 2 2 2 2 2 2 2 2 2 2 2 2 2 2 2 2 3 3 3 4 4 4
38 39 40 41 41 41 40 40 39 39 38 38 36 35 33 31 28 26 22 14 7 4 4 3 3 3 3 2 2 2 2 2 2 2 2 2 2 2 1 1 1 1 1 1 1 1 1 2 2 2 2 3
43 43 43 42 41 40 40 39 38 38 38 37 36 34 33 31 27 24 20 10 4 4 4 3 3 2 2 2 2 2 2 2 2 2 1 2 2 1 1 1 1 1 1 1 1 1 1 1 1 1 1 2
44 42 41 40 40 39 39 38 38 38 38 37 36 34 32 29 25 21 15 7 4 4 3 3 3 2 3 2 2 2 2 2 2 2 2 2 2 2 2 2 2 2 2 2 2 1 2 2 2 2 2 1
42 41 41 41 40 40 40 39 38 38 37 35 33 31 27 24 20 15 9 5 4 4 3 3 3 3 3 3 3 3 3 3 3 3 3 2 2 2 2 2 2 2 2 2 2 2 2 2 2 2 2 2
42 42 42 42 42 42 41 39 38 36 34 31 28 23 19 16 12 8 5 4 4 3 3 3 3 3 3 3 3 3 3 3 3 3 3 3 3 3 3 3 3 3 3 3 2 2 3 2 2 2 2 2
43 43 43 43 42 41 40 38 35 31 27 23 19 14 10 8 7 6 5 4 4 4 4 4 4 4 4 4 4 4 4 4 4 4 4 4 4 4 4 4 4 4 3 3 3 3 3 3 2 3 3 3
45 45 44 43 41 40 39 37 30 22 17 13 10 8 7 7 6 6 5 5 5 4 4 4 5 5 4 5 4 4 4 4 4 4 5 5 4 5 4 4 5 5 4 4 3 3 3 3 3 3 3 3
47 45 43 41 39 37 35 30 22 13 9 8 7 8 8 7 7 6 6 6 5 5 5 5 5 5 5 5 5 5 5 5 6 5 6 6 6 6 5 5 6 6 6 5 4 4 3 3 4 4 4 4
47 43 40 36 32 27 22 16 12 8 7 7 7 8 9 9 8 7 7 6 7 7 7 7 6 6 6 6 6 6 6 6 7 7 7 7 7 7 7 6 7 8 7 6 6 5 4 3 3 4 5 5
42 36 30 25 19 14 11 9 8 8 8 8 9 9 10 10 9 8 7 7 8 8 8 8 8 8 8 8 8 7 7 7 8 8 9 9 9 9 8 8 7 8 9 8 9 8 6 6 5 4 5 5
31 23 17 13 10 9 9 9 10 10 10 10 10 10 10 11 11 10 8 8 9 9 10 10 10 10 10 10 10 9 9 9 9 10 11 12 12 12 11 10 9 9 10 11 11 10 9 9 8 6 6 6
19 13 10 9 10 10 11 11 12 12 12 12 11 11 11 11 11 11 10 8 8 9 10 11 12 12 12 12 13 13 12 12 12 13 14 15 14 14 14 13 12 11 13 13 12 12 13 13 12 10 9 8
12 10 10 12 13 14 14 14 15 15 15 14 14 13 13 13 12 11 11 10 9 9 10 11 12 13 14 14 14 16 16 15 16 17 17 18 17 17 18 17 16 15 17 17 15 16 17 15 16 15 14 13
Wind_Speed
18 18 17 16 16 16 16 16 17 17 18 18 19 19 19 20 20 21 21 22 23 23 24 24 25 25 26 26 27 27 28 28 28 28 28 27 27 28 29 30 31 32 32 31 31 31 31 30 30 30 29 29
17 17 16 15 15 15 16 17 17 18 19 19 20 20 21 21 21 21 22 22 23 24 25 26 26 26 26 26 27 27 28 29 29 29 29 29 29 28 29 30 31 32 32 32 32 31 31 31 31 31 30 30
16 15 15 15 15 15 16 16 17 17 18 19 19 20 20 20 20 21 21 22 23 24 25 26 27 27 27 27 27 27 28 29 29 30 30 30 30 30 29 29 31 32 32 32 32 32 31 31 31 31 31 30
16 15 14 15 15 15 15 15 16 16 17 17 17 18 19 19 19 20 20 21 22 22 24 25 26 27 28 28 28 28 28 29 29 30 30 30 31 30 30 30 30 31 32 33 33 33 32 31 31 31 31 31
15 15 15 15 15 15 14 14 15 15 15 16 16 17 18 19 20 21 22 22 22 23 23 24 25 26 27 28 29 29 29 29 30 30 31 31 31 31 31 30 31 31 32 33 33 34 33 33 32 32 32 32
15 15 15 15 14 14 14 14 14 14 15 16 17 18 19 20 21 22 24 25 25 25 25 25 26 26 27 27 28 29 29 30 30 31 31 32 32 32 32 32 31 32 32 32 33 34 34 34 34 34 34 34
15 15 15 15 15 14 14 14 14 15 16 17 18 19 21 22 23 25 26 27 28 28 28 28 28 28 28 28 28 29 29 30 30 31 32 32 33 33 33 33 33 33 33 33 33 34 34 34 35 35 35 35
16 16 16 16 15 15 14 14 15 15 16 18 19 21 22 24 25 27 28 29 30 31 31 31 31 30 30 30 30 30 30 31 31 31 32 32 33 33 33 34 34 34 34 34 34 35 35 35 36 36 36 37
17 17 17 17 16 15 15 15 15 17 18 20 21 23 24 26 27 29 30 31 32 33 33 33 33 33 32 31 31 31 31 31 32 32 32 32 33 33 34 34 34 34 35 35 36 36 36 36 36 37 37 37
19 18 18 17 17 16 16 16 17 19 20 22 24 25 27 28 29 30 32 33 33 34 35 35 35 35 34 34 34 33 32 32 32 32 32 32 33 33 34 34 34 35 35 36 36 37 37 37 37 37 37 38
19 18 18 17 17 17 17 18 20 22 24 25 27 28 29 30 31 32 33 35 36 36 37 37 37 37 37 37 36 35 34 34 33 33 33 33 33 33 33 33 34 34 34 35 36 36 37 38 38 38 38 38
18 18 18 18 18 19 20 21 23 25 27 29 29 31 32 32 34 35 36 37 38 39 39 39 39 39 39 39 39 38 36 36 35 34 34 33 33 34 34 33 33 33 34 34 35 35 36 37 37 38 38 38
18 18 18 18 19 21 22 24 26 28 30 31 32 34 35 36 37 38 40 40 41 41 41 41 41 41 41 41 41 40 39 38 37 36 35 35 34 34 34 34 34 34 34 34 35 35 35 36 37 37 37 38
18 18 19 20 21 23 25 27 29 31 32 34 35 36 38 40 41 42 43 44 44 44 43 43 43 43 43 43 43 43 42 42 41 39 39 38 37 36 36 35 35 35 34 35 35 35 35 35 36 36 37 37
19 20 21 22 24 26 28 29 31 33 34 36 38 39 41 43 44 45 46 46 47 46 45 45 45 44 45 45 45 45 44 44 44 43 42 42 41 40 39 38 38 37 36 36 36 36 36 36 36 36 36 36
21 22 23 25 26 28 30 31 33 34 36 38 40 42 43 44 46 47 47 48 48 48 47 46 46 46 46 46 46 46 46 46 46 45 45 45 44 43 42 41 40 40 39 38 38 38 38 37 37 37 37 36
22 24 25 27 28 30 31 33 34 36 38 40 42 43 44 46 47 48 48 48 48 48 48 47 47 46 47 47 47 46 46 46 46 46 46 46 46 45 44 43 42 42 41 40 40 40 40 40 39 39 38 37
24 25 26 28 29 31 33 35 36 38 40 42 44 45 47 48 48 49 49 49 49 49 49 48 47 47 47 47 46 45 45 45 45 45 45 45 46 45 45 44 43 43 42 41 41 41 41 41 40 40 40 39
25 26 27 29 31 33 35 37 39 41 43 45 48 49 50 50 51 50 50 50 50 50 50 49 47 46 45 45 45 45 45 45 44 45 45 45 45 45 44 44 43 43 43 42 41 41 41 41 41 41 40 41
25 27 29 31 34 36 38 40 43 45 47 49 51 52 52 52 52 52 52 52 51 51 50 49 47 45 44 44 45 44 44 44 44 45 44 44 45 45 44 44 43 43 43 43 43 42 42 41 41 41 41 41
28 30 32 35 37 40 42 44 47 49 51 52 53 54 54 54 54 53 53 52 52 51 49 48 47 45 44 44 44 44 43 43 43 44 44 43 44 45 44 44 43 43 44 45 44 43 42 42 42 42 41 41
31 33 35 38 40 42 45 47 49 51 52 54 55 55 55 55 54 54 54 53 52 51 49 47 46 45 44 45 45 44 43 43 43 44 44 43 43 44 45 44 43 43 44 45 45 44 43 42 43 43 41 41
34 36 38 39 41 43 46 48 50 52 54 55 56 56 56 55 55 55 54 53 52 50 48 47 46 45 44 45 45 45 44 43 43 44 44 44 43 43 44 44 43 43 44 45 45 44 43 43 43 43 41 41
37 39 40 42 43 45 47 49 52 54 55 56 56 56 56 56 55 55 54 52 51 49 48 47 46 45 45 45 45 45 45 44 44 44 44 45 44 44 44 44 43 44 45 46 45 45 44 44 44 43 42 42
40 42 44 45 47 48 49 51 54 54 54 55 55 55 55 55 54 54 53 51 50 49 49 48 47 46 45 46 46 46 46 45 45 45 45 45 45 45 44 44 43 44 46 47 46 46 45 44 44 43 43 43
43 45 47 49 51 52 54 55 56 55 54 53 53 52 52 52 52 52 52 51 50 50 49 49 48 47 47 47 47 47 46 46 46 45 46 46 46 46 46 45 43 44 47 48 48 47 47 46 44 43 43 43
46 48 51 53 55 56 57 57 57 56 55 53 52 50 49 49 50 51 51 51 51 51 51 51 50 50 49 48 48 48 48 47 47 47 47 47 48 47 47 46 44 44 46 48 48 49 50 49 46 44 42 42
49 51 52 54 54 55 55 54 54 53 53 53 52 50 48 47 47 48 49 50 50 51 52 52 52 51 51 50 50 50 49 49 48 48 48 48 48 48 48 47 46 45 45 46 47 49 50 50 49 47 44 43
51 52 53 53 53 52 52 51 50 51 51 51 51 51 50 49 48 47 48 48 49 51 52 52 52 52 52 51 51 51 51 51 50 49 49 48 49 49 48 48 47 46 44 44 45 47 49 49 50 50 48 47
52 52 52 52 52 51 51 51 50 51 52 52 52 52 52 52 51 50 49 48 48 50 51 52 52 52 52 51 51 51 51 52 51 50 50 49 49 48 48 48 48 46 44 45 45 45 46 48 50 51 50 51
52 51 51 51 51 50 50 50 50 50 51 52 53 54 54 53 52 52 52 51 50 50 51 51 51 51 51 51 51 51 51 51 51 51 50 49 49 48 48 48 48 47 44 45 45 44 45 47 48 50 51 51
Wind_Direction
288 286 285 284 283 283 284 285 287 288 289 290 290 290 289 288 287 287 287 287 287 287 286 285 284 283 282 281 280 278 277 276 275 274 274 273 273 272 272 273 273 273 273 272 272 270 269 267 264 260 256 254
285 283 283 282 282 283 286 288 289 290 291 291 291 290 290 290 289 290 291 291 290 289 288 287 286 285 284 283 282 281 279 278 277 276 274 273 272 271 270 270 270 270 271 271 270 270 269 268 266 263 260 256
283 281 281 282 284 286 288 289 290 290 291 292 293 294 294 295 296 297 298 297 295 294 292 291 289 288 286 284 283 282 281 280 278 277 276 275 273 272 270 269 269 269 269 269 268 268 268 268 267 265 263 259
281 280 280 283 286 288 288 288 289 290 292 295 297 299 300 301 303 304 303 302 301 300 299 297 294 292 290 288 286 284 282 281 280 279 278 277 275 274 272 271 270 269 268 268 268 267 267 267 266 266 265 262
280 281 283 285 285 285 284 285 287 290 295 298 300 301 302 303 304 303 303 302 301 301 301 300 299 298 296 293 290 288 285 283 281 280 279 278 277 276 274 273 272 271 270 269 268 268 267 266 265 265 264 263
280 282 283 281 278 277 277 281 285 291 295 298 300 301 303 304 305 305 304 303 302 300 299 298 298 298 298 297 295 292 289 286 283 281 279 278 277 276 275 274 273 272 271 271 270 269 268 267 266 265 264 263
280 279 275 272 270 270 274 280 287 292 296 300 302 304 307 308 309 309 309 308 306 304 301 298 296 296 296 297 296 295 293 290 286 283 281 279 277 276 275 274 273 272 272 271 271 270 270 269 268 267 266 265
275 270 266 265 265 268 274 281 288 293 298 302 305 307 310 311 312 312 312 311 310 308 305 302 299 296 295 295 295 295 295 293 290 287 284 282 279 278 276 275 274 273 272 271 271 271 270 270 270 269 268 267
266 263 262 262 264 268 275 281 288 294 300 304 307 310 311 312 313 314 314 313 312 310 308 306 302 299 297 295 294 294 294 293 292 290 288 285 283 280 279 277 275 274 273 272 272 271 271 270 270 270 269 268
259 259 260 262 265 270 277 283 290 296 302 306 309 311 312 312 313 313 313 313 312 311 310 308 305 302 300 297 295 294 292 292 291 290 288 287 284 283 281 279 278 276 275 274 273 272 272 271 270 269 269 269
257 258 261 264 268 274 280 287 293 299 304 307 309 310 310 311 311 311 311 311 311 310 309 307 305 303 301 298 296 294 292 291 290 288 287 286 285 284 282 281 280 278 277 275 274 273 273 272 271 269 268 268
258 261 263 267 272 278 284 290 295 300 304 306 308 308 309 309 308 308 309 310 310 308 307 306 304 303 300 298 296 294 293 291 290 288 287 286 285 284 283 282 281 280 279 277 276 274 273 273 272 270 269 268
262 265 268 273 277 282 287 291 295 299 302 304 306 307 307 307 307 306 306 307 308 307 306 304 303 301 299 297 295 294 293 292 291 289 287 286 285 284 283 283 282 281 279 278 277 276 274 274 273 272 270 269
267 270 274 278 282 286 289 292 296 299 301 303 305 306 306 306 306 305 305 305 306 306 305 303 302 300 298 296 294 293 293 292 291 289 288 286 285 284 283 282 282 281 279 279 278 277 276 275 274 273 272 271
270 273 277 280 284 288 292 295 298 300 302 304 305 306 306 306 305 305 304 304 305 304 304 302 301 299 297 295 293 292 292 290 290 289 288 286 285 283 282 281 280 279 279 278 278 277 277 275 274 274 273 272
272 276 279 283 287 292 295 298 300 302 303 304 305 306 307 307 306 306 305 305 304 303 302 301 299 298 296 294 292 291 290 289 288 287 286 285 284 283 282 281 279 278 278 277 277 277 276 275 275 274 274 273
275 279 283 288 292 295 298 300 302 303 304 305 306 307 307 308 308 308 307 305 304 303 301 300 298 297 295 293 291 290 289 288 287 286 285 285 284 283 282 281 280 279 278 277 276 276 276 275 275 274 274 274
279 284 288 292 295 298 300 301 303 304 305 306 307 307 307 308 309 309 308 306 304 303 301 300 298 296 294 292 291 290 289 287 287 285 285 284 284 283 283 282 281 281 280 278 277 276 276 275 275 274 274 274
285 289 292 295 297 299 300 302 303 304 305 306 307 307 308 308 308 309 308 306 305 303 301 299 297 295 293 291 290 289 289 288 287 286 285 284 284 284 283 283 283 282 281 280 279 278 277 277 276 275 275 274
288 291 293 295 297 299 301 302 303 305 306 306 307 307 308 308 308 308 307 306 304 302 300 298 296 294 291 290 289 289 288 287 287 285 285 285 284 284 283 283 283 283 283 282 280 280 279 279 278 277 276 275
289 291 293 295 298 300 301 303 304 305 306 307 307 307 308 308 307 307 306 305 303 301 299 297 294 292 291 289 288 288 287 286 286 285 284 284 284 284 283 283 283 283 283 282 281 281 281 280 280 278 277 276
291 294 297 299 301 302 303 304 305 306 306 306 307 307 307 307 306 305 304 303 301 299 297 294 292 291 290 289 288 287 286 286 285 284 284 283 283 283 283 283 283 282 282 282 282 282 282 281 280 279 279 278
293 296 298 300 302 303 304 305 305 306 307 307 308 308 307 306 305 304 303 301 299 297 294 292 290 290 289 288 287 286 285 285 284 283 283 282 282 281 282 282 282 281 280 280 281 281 282 281 280 281 281 279
295 297 298 299 301 302 303 305 307 308 308 309 308 308 307 305 304 302 301 299 297 295 293 291 290 289 288 286 285 284 283 282 282 281 281 281 280 280 280 281 281 281 280 279 279 279 279 279 280 281 281 280
299 300 301 301 302 302 303 306 308 308 309 309 308 307 305 304 303 301 300 298 296 294 292 290 289 288 286 285 283 283 282 281 280 280 279 279 279 279 278 278 279 280 279 279 278 278 278 278 279 280 280 280
304 305 305 306 306 307 307 308 308 308 309 308 307 305 304 303 301 300 298 297 295 293 291 290 288 287 286 284 282 281 281 280 279 279 278 278 278 278 278 277 277 277 278 279 279 279 278 277 276 277 279 280
308 309 310 311 311 311 310 310 310 310 309 308 306 305 303 301 300 298 297 295 294 292 291 289 288 287 285 284 282 280 280 279 279 278 278 278 278 277 277 277 277 276 277 279 280 280 279 279 277 275 275 276
311 312 312 312 312 311 311 310 309 309 308 307 306 305 304 302 299 297 295 293 291 290 289 288 287 286 285 284 282 281 280 279 279 278 278 277 277 277 277 277 276 276 276 278 279 280 281 282 281 279 276 274
313 313 312 311 310 309 308 308 308 308 307 306 306 305 305 304 302 299 295 292 289 288 287 286 285 285 284 283 282 280 280 279 278 278 278 277 277 277 277 277 276 276 276 277 278 280 281 283 282 281 280 277
313 313 312 310 308 308 308 309 309 308 308 307 306 306 305 305 304 302 299 295 291 288 286 285 284 284 283 281 280 279 278 278 278 277 277 276 276 276 276 276 276 276 276 276 277 278 280 281 281 282 282 280
313 311 309 309 309 310 311 310 309 308 307 306 306 305 305 305 304 302 301 298 294 290 287 285 283 282 281 279 278 277 276 275 275 275 274 274 274 273 274 274 274 275 275 275 275 276 277 278 279 281 281 281